User: anonymous   Login
Location: Unspecified
(0.0000°N, 0.0000°E)
Time: 20:48:28
(UTC+00:00)
Language:

Freja - Orbit

View from above orbital plane
View from above orbital plane
View from above satellite
View from above satellite

Ground track
Ground track

The orbit data is extracted from the following two-line orbital elements,

1 22161U 92064A   18140.82638684 -.00000079  00000-0  13676-4 0  9996
2 22161  62.9898 278.1385 0776771 348.2114  10.1585 13.30306874241370
Epoch (UTC): 20 May 2018 19:49:59
Eccentricity: 0.0776771
inclination: 62.9898°
perigee height: 561 km
apogee height: 1730 km
right ascension of ascending node: 278.1385°
argument of perigee: 348.2114°
revolutions per day: 13.30306874
mean anomaly at epoch: 10.1585°
orbit number at epoch: 24137

The dashed part of the orbit path shows where the satellite is in the earth's shadow,  

DLR